, TX

(GMT )
Midland

Weather History for KMAF - July, 2013

Change the Weather History Date:

Monday, July 29, 2013

  Actual Average Record
Temperature  
Mean Temperature 86 °F 82 °F  
Max Temperature 95 °F 95 °F 105 °F (1995)
Min Temperature 76 °F 70 °F 63 °F (1988)
Cooling Degree Days 21 17  
Month to date cooling degree days 470 493  
Year to date cooling degree days 1522 1343  
Since 1 June cooling degree days 1034 954  
Growing Degree Days 35 (Base 50)    
Moisture  
Dew Point 65 °F    
Average Humidity 53    
Maximum Humidity 69    
Minimum Humidity 36    
Precipitation  
Precipitation T in 0.06 in 0.68 in (2007)
Month to date precipitation 0.98 1.71  
Year to date precipitation 3.39 7.77  
Sea Level Pressure  
Sea Level Pressure 29.85 in    
Wind  
Wind Speed 12 mph (South)    
Max Wind Speed 26 mph    
Max Gust Speed 32 mph    
Visibility 10 miles    
Events Rain , Thunderstorm    
T = Trace of Precipitation, MM = Missing Value Source: NWS Daily Summary

Daily Weather History Graph

Daily Weather History Graph

Search for Another Location

Airport or City:

Trip Planner

Search our weather history database for the weather conditions in past years. The results will help you decide how hot, cold, wet, or windy it might be!

Date:

Astronomy

Jul. 29, 2013 Rise Set
Actual Time 7:02 AM CDT 8:47 PM CDT
Civil Twilight 6:35 AM CDT 9:14 PM CDT
Nautical Twilight 6:03 AM CDT 9:46 PM CDT
Astronomical Twilight 5:29 AM CDT 10:20 PM CDT
Moon 12:40 AM CDT (7/29) 2:15 PM CDT (7/29)
Length of Visible Light 14h 38m
Length of Day
13h 45m
Waning Gibbous, 50% of the Moon is Illuminated
Jul 29
Waning Gibbous
Jul 29
Last Quarter
Aug 6
New
Aug 14
First Quarter
Aug 20
Full

Hourly Weather History & Observations

Time (CDT) Temp. Heat Index Dew Point Humidity Pressure Visibility Wind Dir Wind Speed Gust Speed Precip Events Conditions
12:53 AM 84.0 °F 85.8 °F 64.9 °F 53% 29.81 in 10.0 mi South 11.5 mph - N/A   Clear
1:53 AM 82.9 °F 84.6 °F 64.9 °F 54% 29.79 in 10.0 mi South 12.7 mph - N/A   Clear
2:53 AM 82.0 °F 83.8 °F 64.9 °F 56% 29.80 in 10.0 mi SSW 10.4 mph - N/A   Clear
3:53 AM 80.1 °F 81.9 °F 64.9 °F 60% 29.80 in 10.0 mi SW 9.2 mph - N/A   Scattered Clouds
4:53 AM 78.1 °F - 64.9 °F 64% 29.80 in 10.0 mi SSW 9.2 mph - N/A   Clear
5:53 AM 77.0 °F - 64.0 °F 64% 29.80 in 10.0 mi SSW 9.2 mph - N/A   Clear
6:53 AM 75.9 °F - 64.9 °F 69% 29.81 in 10.0 mi South 9.2 mph - N/A   Clear
7:53 AM 78.1 °F - 64.9 °F 64% 29.83 in 10.0 mi South 8.1 mph - N/A   Clear
8:53 AM 81.0 °F 83.3 °F 66.9 °F 62% 29.84 in 10.0 mi South 13.8 mph - N/A   Clear
9:53 AM 82.0 °F 84.5 °F 66.9 °F 60% 29.86 in 10.0 mi South 13.8 mph - N/A   Clear
10:53 AM 84.0 °F 87.0 °F 68.0 °F 58% 29.86 in 10.0 mi South 13.8 mph - N/A   Clear
11:53 AM 88.0 °F 90.3 °F 66.0 °F 48% 29.86 in 10.0 mi South 10.4 mph 21.9 mph N/A   Clear
12:53 PM 91.9 °F 93.3 °F 64.0 °F 39% 29.84 in 10.0 mi WSW 12.7 mph 19.6 mph N/A   Clear
1:53 PM 93.0 °F 93.8 °F 62.1 °F 36% 29.83 in 10.0 mi South 5.8 mph 18.4 mph N/A   Clear
2:53 PM 93.9 °F 95.6 °F 64.0 °F 37% 29.81 in 10.0 mi South 8.1 mph - N/A   Clear
3:53 PM 93.0 °F 93.8 °F 62.1 °F 36% 29.81 in 10.0 mi SW 9.2 mph - N/A   Mostly Cloudy
4:00 PM 93.2 °F 93.3 °F 60.8 °F 34% 29.97 in 10.0 mi SW 8.1 mph - N/A Thunderstorm Mostly Cloudy
4:18 PM 89.6 °F 91.1 °F 64.4 °F 43% 29.97 in 9.0 mi Variable 6.9 mph - 0.00 in Rain Light Rain
4:36 PM 91.4 °F 92.1 °F 62.6 °F 38% 29.98 in 10.0 mi South 21.9 mph 25.3 mph 0.00 in Thunderstorm Mostly Cloudy
4:53 PM 91.0 °F 93.8 °F 66.0 °F 44% 29.82 in 10.0 mi SSE 24.2 mph 29.9 mph 0.00 in Thunderstorm Scattered Clouds
5:53 PM 91.9 °F 92.9 °F 63.0 °F 38% 29.83 in 10.0 mi SSE 16.1 mph - N/A Thunderstorm Partly Cloudy
6:06 PM 91.4 °F 92.1 °F 62.6 °F 38% 29.98 in 10.0 mi South 16.1 mph - N/A   Clear
6:53 PM 90.0 °F 90.6 °F 63.0 °F 40% 29.83 in 10.0 mi South 15.0 mph - N/A   Clear
7:53 PM 87.1 °F 89.9 °F 66.9 °F 51% 29.87 in 10.0 mi South 15.0 mph - N/A   Clear
8:53 PM 84.0 °F 85.8 °F 64.9 °F 53% 29.88 in 10.0 mi SSW 17.3 mph - N/A   Clear
9:53 PM 82.0 °F 84.1 °F 66.0 °F 58% 29.88 in 10.0 mi SSW 10.4 mph - N/A   Clear
10:53 PM 81.0 °F 83.3 °F 66.9 °F 62% 29.90 in 10.0 mi South 13.8 mph - N/A   Clear
11:53 PM 78.1 °F - 66.0 °F 66% 29.89 in 10.0 mi SSW 13.8 mph - N/A   Clear